Weather History for Al Udeid, Qatar

Change the Weather History Date:

Monday, May 26, 2014

  Actual Average Record
Temperature  
Mean Temperature 98 °F -  
Max Temperature 113 °F - - ()
Min Temperature 83 °F - - ()
Cooling Degree Days 33    
Growing Degree Days 48 (Base 50)    
Moisture  
Dew Point 56 °F    
Average Humidity 29    
Maximum Humidity 62    
Minimum Humidity 9    
Precipitation  
Precipitation 0.00 in - - ()
Sea Level Pressure  
Sea Level Pressure 29.70 in    
Wind  
Wind Speed 9 mph ()    
Max Wind Speed 16 mph    
Max Gust Speed 22 mph    
Visibility 6.1 miles    
Events      
T = Trace of Precipitation, MM = Missing Value Source: Averaged Metar Reports

Daily Weather History Graph

Daily Weather History Graph

Search for Another Location

Airport:

Trip Planner

Search our weather history database for the weather conditions in past years. The results will help you decide how hot, cold, wet, or windy it might be!

Date:

Astronomy

May. 26, 2014 Rise Set
Actual Time 4:45 AM AST 6:17 PM AST
Civil Twilight 4:20 AM AST 6:43 PM AST
Nautical Twilight 3:50 AM AST 7:13 PM AST
Astronomical Twilight 3:18 AM AST 7:44 PM AST
Moon 2:56 AM AST (5/26) 4:10 PM AST (5/26)
Length of Visible Light 14h 22m
Length of Day
13h 31m
Waning Crescent, 6% of the Moon is Illuminated
May 26
Waning Crescent
May 28
New
Jun 5
First Quarter
Jun 13
Full
Jun 19
Last Quarter

Hourly Weather History & Observations

Time (AST) Temp. Heat Index Dew Point Humidity Pressure Visibility Wind Dir Wind Speed Gust Speed Precip Events Conditions
12:58 AM 87.4 °F 87.2 °F 60.4 °F 40% 29.69 in 6.2 mi NW 8.1 mph - N/A   Clear
1:58 AM 87.4 °F 85.7 °F 55.4 °F 33% 29.68 in 6.2 mi NW 6.9 mph - N/A   Clear
2:58 AM 83.5 °F 82.5 °F 55.0 °F 38% 29.68 in 6.2 mi WNW 6.9 mph - N/A   Clear
3:58 AM 85.1 °F 86.9 °F 64.9 °F 51% 29.68 in 6.2 mi WNW 6.9 mph - N/A   Clear
4:58 AM 84.2 °F 87.1 °F 67.3 °F 57% 29.70 in 6.2 mi NW 5.8 mph - N/A   Clear
5:58 AM 85.8 °F 91.5 °F 71.2 °F 62% 29.71 in 6.2 mi NW 9.2 mph - N/A   Clear
6:58 AM 90.3 °F 99.3 °F 73.6 °F 58% 29.73 in 6.2 mi NNW 10.4 mph - N/A   Haze
7:58 AM 96.8 °F 101.2 °F 67.5 °F 38% 29.73 in 6.2 mi North 12.7 mph - N/A   Clear
8:58 AM 103.5 °F 103.2 °F 57.6 °F 22% 29.74 in 5.0 mi North 16.1 mph - N/A   Haze
9:58 AM 107.2 °F 106.3 °F 54.5 °F 18% 29.74 in 6.2 mi North 15.0 mph - N/A   Clear
10:58 AM 110.5 °F - 51.1 °F 14% 29.73 in 6.2 mi North 10.4 mph 19.6 mph N/A   Partly Cloudy
11:58 AM 111.7 °F - 48.4 °F 12% 29.71 in 6.2 mi North 10.4 mph - N/A   Mostly Cloudy
12:58 PM 113.2 °F - 45.1 °F 10% 29.70 in 6.2 mi North 10.4 mph 17.3 mph N/A   Clear
1:58 PM 113.4 °F - 45.3 °F 10% 29.68 in 6.2 mi NNE 9.2 mph 21.9 mph N/A   Clear
2:58 PM 113.2 °F - 44.1 °F 10% 29.68 in 6.2 mi NNW 13.8 mph 17.3 mph N/A   Clear
3:58 PM 112.1 °F - 41.7 °F 9% 29.66 in 6.2 mi NNW 12.7 mph 19.6 mph N/A   Clear
4:58 PM 109.9 °F - 49.5 °F 13% 29.66 in 6.2 mi NNE 13.8 mph 20.7 mph N/A   Clear
5:58 PM 107.2 °F - 47.3 °F 13% 29.68 in 6.2 mi North 13.8 mph - N/A   Clear
6:58 PM 103.5 °F - 50.2 °F 17% 29.68 in 6.2 mi North 13.8 mph - N/A   Clear
7:58 PM 99.9 °F - 52.2 °F 20% 29.71 in 6.2 mi NNW 10.4 mph - N/A   Clear
8:58 PM 96.1 °F 93.8 °F 54.3 °F 24% 29.73 in 6.2 mi NNW 12.7 mph - N/A   Clear
9:58 PM 93.0 °F 92.3 °F 58.8 °F 32% 29.73 in 6.2 mi North 8.1 mph - N/A   Clear
10:58 PM 90.9 °F 92.3 °F 64.0 °F 41% 29.73 in 6.2 mi North 8.1 mph - N/A   Clear
11:58 PM 90.0 °F 93.6 °F 68.0 °F 48% 29.70 in 6.2 mi North 5.8 mph - N/A   Clear